Location: Unspecified
(0.0000°N, 0.0000°E)
Time: 21:36:47
(UTC+00:00)

AO-7 - Pass Details

Date: 27 September 2021
Orbit: 1439 x 1459 km, 101.9° (Epoch: 24 October)

Event Time Altitude Azimuth Distance (km) Brightness Sun altitude
Rises 04:12:06 0° 6° (N) 4,520 ? -24.7°
Reaches altitude 10° 04:14:56 10° 1° (N) 3,543 ? -24.0°
Maximum altitude 04:22:55 55° 286° (WNW) 1,690 ? -22.0°
Drops below altitude 10° 04:30:56 10° 211° (SSW) 3,552 ? -20.0°
Sets 04:33:48 0° 206° (SSW) 4,532 ? -19.3°
